Skip Page Navigation
NASA JPL Caltech
NASA Logo - Jet Propulsion Laboratory + View the NASA Portal
+ Near-Earth Object (NEO) Program
Search JPL
JPL Home Earth Solar System Stars & Galaxies Technology
JPL Solar System Dynamics
BODIES ORBITS EPHEMERIDES TOOLS PHYSICAL DATA DISCOVERY FAQ SITE MAP
JPL Small-Body Database Browser
Search: [ help ]  
19079 Hernandez (1967 KC)
Classification: Main-belt Asteroid          SPK-ID: 2019079
Ephemeris | Orbit Diagram | Orbital Elements | Physical Parameters | Discovery Circumstances | Close-Approach Data ]

[ show orbit diagram ]
Orbital Elements at Epoch 2457000.5 (2014-Dec-09.0) TDB
Reference: JPL 8 (heliocentric ecliptic J2000)
 Element Value Uncertainty (1-sigma)   Units 
e .1782336159911375 4.9363e-08  
a 2.969205439526323 2.8129e-08 AU
q 2.439993217418992 1.4351e-07 AU
i 8.043560908492223 6.4412e-06 deg
node 38.91449095297723 4.5947e-05 deg
peri 217.3485290644764 5.126e-05 deg
M 91.62965505821673 2.254e-05 deg
tp 2456524.844690400696
(2013-Aug-20.34469040)
0.00011738 JED
period 1868.782670271484
5.12
2.6556e-05
7.271e-08
d
yr
n .192638772676387 2.7375e-09 deg/d
Q 3.498417661633654 3.3142e-08 AU
  Orbit Determination Parameters
   # obs. used (total)      913  
   data-arc span      17374 days (47.57 yr)  
   first obs. used      1967-05-31  
   last obs. used      2014-12-24  
   planetary ephem.      DE431  
   SB-pert. ephem.      SB431-BIG16  
   condition code      0  
   fit RMS      .4625  
   data source      ORB  
   producer      Otto Matic  
   solution date      2015-Feb-04 13:53:10  

Additional Information
 Earth MOID = 1.4329 AU 
 T_jup = 3.224 
[ show covariance matrix ]

Ephemeris | Orbit Diagram | Orbital Elements | Physical Parameters | Discovery Circumstances | Close-Approach Data ]

Physical Parameter Table
Parameter Symbol Value Units Sigma Reference Notes
absolute magnitude H 13.1 mag n/a MPO263518  

19079 Hernández           Discovered 1967 May 31 at El Leoncito.
José Hernández (1834-1886) was the Argentinian author of El Gaucho Martín Fierro (1872), La Vuelta de Martín Fierro (1879) and other classic gaucho poems. The name was suggested by W. A. Fröger.
NOTE: some special characters may not display properly (any characters within {} are an attempt to place the proper accent above a character)
Reference: 20060413/MPCPages.arcLast Updated: 2006-04-17

[ show close-approach data ]
Alternate Designations
 1967 KC = 1982 HF3 = 1997 EF25 
Ephemeris | Orbit Diagram | Orbital Elements | Physical Parameters | Discovery Circumstances | Close-Approach Data ]
ABOUT SSD CREDITS/AWARDS PRIVACY/COPYRIGHT GLOSSARY LINKS
FirstGov 2015-Mar-06 00:04 UT
(server date/time)  
NASA Home Page
Site Manager:   Ryan S. Park
Webmaster  Alan B. Chamberlin